Weather History for KMLE - June, 2013

Change the Weather History Date:

Saturday, June 1, 2013

  Actual Average (KOMA) Record (KOMA)
Temperature  
Mean Temperature 59 °F 68 °F  
Max Temperature 62 °F 79 °F 95 °F (1934)
Min Temperature 55 °F 56 °F 42 °F (1983)
Degree Days  
Heating Degree Days 6 2  
Month to date heating degree days 2  
Since 1 June heating degree days 2  
Since 1 July heating degree days 6152  
Cooling Degree Days 0 4  
Month to date cooling degree days 4  
Year to date cooling degree days 86  
Since 1 June cooling degree days 4  
Growing Degree Days 9 (Base 50)    
Moisture  
Dew Point 50 °F    
Average Humidity 73    
Maximum Humidity 91    
Minimum Humidity 54    
Precipitation  
Precipitation 0.03 in 0.16 in 2.58 in (1994)
Month to date precipitation 0.16  
Year to date precipitation 11.44  
Snow  
Snow 0.00 in 0.00 in - ()
Month to date snowfall 0.0  
Since 1 July snowfall 26.4  
Snow Depth -    
Sea Level Pressure  
Sea Level Pressure 29.82 in    
Wind  
Wind Speed 12 mph (WNW)    
Max Wind Speed 21 mph    
Max Gust Speed 31 mph    
Visibility 10 miles    
Events Rain    
T = Trace of Precipitation, MM = Missing Value Source: NWS Daily Summary

Daily Weather History Graph

Daily Weather History Graph

Search for Another Location

Airport or City:

Trip Planner

Search our weather history database for the weather conditions in past years. The results will help you decide how hot, cold, wet, or windy it might be!

Date:

Astronomy

Jun. 01, 2013 Rise Set
Actual Time 5:53 AM CDT 8:51 PM CDT
Civil Twilight 5:20 AM CDT 9:24 PM CDT
Nautical Twilight 4:39 AM CDT 10:06 PM CDT
Astronomical Twilight 3:50 AM CDT 10:55 PM CDT
Moon 1:54 AM CDT (6/1) 2:18 PM CDT (6/1)
Length of Visible Light 16h 03m
Length of Day
14h 57m
Last Quarter, 40% of the Moon is Illuminated
Jun 1
Last Quarter
Jun 8
New
Jun 16
First Quarter
Jun 23
Full
Jun 29
Last Quarter

Hourly Weather History & Observations

Time (CDT) Temp. Dew Point Humidity Pressure Visibility Wind Dir Wind Speed Gust Speed Precip Events Conditions
12:15 AM 63.5 °F 46.4 °F 54% 29.73 in 10.0 mi West 10.4 mph - N/A   Clear
12:35 AM 62.6 °F 46.4 °F 55% 29.72 in 10.0 mi West 9.2 mph 18.4 mph N/A   Clear
12:55 AM 61.9 °F 46.6 °F 57% 29.72 in 10.0 mi West 8.1 mph - N/A   Clear
1:15 AM 61.7 °F 46.8 °F 58% 29.71 in 10.0 mi West 8.1 mph - N/A   Clear
1:35 AM 61.3 °F 47.3 °F 60% 29.70 in 10.0 mi West 12.7 mph - N/A   Clear
1:55 AM 61.3 °F 47.1 °F 60% 29.69 in 10.0 mi West 12.7 mph - N/A   Clear
2:15 AM 60.8 °F 47.3 °F 61% 29.69 in 10.0 mi West 10.4 mph 17.3 mph N/A   Clear
2:35 AM 60.6 °F 47.3 °F 61% 29.68 in 10.0 mi West 11.5 mph 17.3 mph N/A   Clear
2:55 AM 60.1 °F 47.5 °F 63% 29.67 in 10.0 mi West 10.4 mph - N/A   Clear
3:15 AM 59.5 °F 47.7 °F 65% 29.68 in 10.0 mi West 8.1 mph - N/A   Clear
3:35 AM 59.0 °F 47.7 °F 66% 29.68 in 10.0 mi West 9.2 mph - N/A   Clear
3:55 AM 58.6 °F 48.2 °F 68% 29.68 in 10.0 mi WSW 9.2 mph 16.1 mph N/A   Clear
4:15 AM 58.3 °F 48.2 °F 69% 29.68 in 10.0 mi West 9.2 mph - N/A   Clear
4:35 AM 57.7 °F 48.4 °F 71% 29.68 in 10.0 mi West 6.9 mph - N/A   Clear
4:55 AM 58.1 °F 48.7 °F 71% 29.69 in 10.0 mi West 8.1 mph - N/A   Scattered Clouds
5:15 AM 58.3 °F 49.1 °F 71% 29.69 in 10.0 mi West 10.4 mph 16.1 mph N/A   Mostly Cloudy
5:35 AM 58.5 °F 49.5 °F 72% 29.70 in 10.0 mi West 8.1 mph - N/A   Overcast
5:55 AM 58.5 °F 49.5 °F 72% 29.71 in 10.0 mi West 6.9 mph - N/A   Overcast
6:15 AM 58.3 °F 49.1 °F 71% 29.70 in 10.0 mi West 8.1 mph - N/A   Overcast
6:35 AM 58.1 °F 49.3 °F 72% 29.70 in 10.0 mi West 11.5 mph 17.3 mph N/A   Overcast
6:55 AM 58.1 °F 49.5 °F 73% 29.71 in 10.0 mi West 11.5 mph - N/A   Overcast
7:15 AM 58.1 °F 50.0 °F 74% 29.71 in 10.0 mi West 9.2 mph - N/A   Overcast
7:35 AM 58.5 °F 50.5 °F 75% 29.72 in 10.0 mi West 10.4 mph 18.4 mph N/A   Overcast
7:55 AM 59.0 °F 51.3 °F 75% 29.71 in 10.0 mi West 15.0 mph 19.6 mph N/A   Overcast
8:15 AM 59.7 °F 52.0 °F 76% 29.72 in 10.0 mi West 15.0 mph 21.9 mph N/A   Overcast
8:35 AM 59.9 °F 53.2 °F 79% 29.73 in 10.0 mi WNW 17.3 mph - N/A   Overcast
8:55 AM 60.8 °F 54.3 °F 79% 29.73 in 10.0 mi WNW 16.1 mph 19.6 mph N/A   Overcast
9:15 AM 61.3 °F 54.7 °F 79% 29.74 in 10.0 mi WNW 16.1 mph 25.3 mph N/A   Overcast
9:35 AM 61.9 °F 54.5 °F 77% 29.74 in 10.0 mi NW 19.6 mph 24.2 mph N/A   Overcast
9:55 AM 62.1 °F 53.4 °F 73% 29.75 in 10.0 mi NW 20.7 mph 28.8 mph N/A   Overcast
10:15 AM 61.7 °F 52.2 °F 71% 29.76 in 10.0 mi WNW 17.3 mph 24.2 mph N/A   Overcast
10:35 AM 59.9 °F 52.9 °F 78% 29.76 in 10.0 mi WNW 18.4 mph 31.1 mph N/A   Overcast
10:55 AM 60.4 °F 53.1 °F 77% 29.77 in 10.0 mi WNW 17.3 mph 27.6 mph N/A   Overcast
11:15 AM 59.4 °F 53.6 °F 81% 29.78 in 5.0 mi WNW 19.6 mph 28.8 mph N/A   Haze
11:35 AM 58.6 °F 54.1 °F 85% 29.79 in 3.0 mi WNW 18.4 mph 24.2 mph N/A Rain Rain
11:55 AM 59.2 °F 52.9 °F 80% 29.81 in 10.0 mi NW 13.8 mph 26.5 mph N/A   Overcast
12:15 PM 60.1 °F 52.7 °F 77% 29.81 in 10.0 mi NW 18.4 mph 25.3 mph N/A   Overcast
12:35 PM 59.5 °F 52.3 °F 77% 29.83 in 10.0 mi NW 18.4 mph 28.8 mph N/A   Overcast
12:55 PM 58.1 °F 54.3 °F 87% 29.83 in 5.0 mi WNW 9.2 mph - N/A Rain Rain
1:15 PM 58.1 °F 54.7 °F 88% 29.84 in 4.0 mi NW 17.3 mph 25.3 mph 0.01 in Rain Rain
1:35 PM 57.4 °F 54.7 °F 91% 29.85 in 5.0 mi NW 12.7 mph 18.4 mph 0.03 in Rain Light Rain
1:55 PM 58.1 °F 54.3 °F 87% 29.85 in 10.0 mi NW 12.7 mph 19.6 mph 0.03 in   Overcast
2:15 PM 58.6 °F 53.8 °F 84% 29.86 in 10.0 mi NW 12.7 mph 24.2 mph N/A Rain Light Rain
2:35 PM 59.0 °F 53.4 °F 82% 29.86 in 10.0 mi NW 12.7 mph 17.3 mph N/A   Overcast
2:55 PM 59.0 °F 53.2 °F 81% 29.87 in 10.0 mi NW 12.7 mph 18.4 mph N/A   Overcast
3:15 PM 59.0 °F 53.2 °F 81% 29.87 in 10.0 mi NW 12.7 mph 19.6 mph N/A   Overcast
3:35 PM 60.3 °F 52.5 °F 76% 29.88 in 10.0 mi NW 18.4 mph 27.6 mph N/A   Overcast
3:55 PM 60.8 °F 51.8 °F 72% 29.88 in 10.0 mi NW 16.1 mph 23.0 mph N/A   Overcast
4:15 PM 60.3 °F 51.1 °F 72% 29.89 in 10.0 mi NW 13.8 mph 23.0 mph N/A   Overcast
4:35 PM 61.3 °F 51.6 °F 70% 29.89 in 10.0 mi NW 13.8 mph 21.9 mph N/A   Overcast
4:55 PM 61.9 °F 51.6 °F 69% 29.90 in 10.0 mi NW 17.3 mph 26.5 mph N/A   Overcast
5:15 PM 61.7 °F 51.4 °F 69% 29.91 in 10.0 mi NW 12.7 mph 20.7 mph N/A   Overcast
5:35 PM 61.2 °F 50.7 °F 69% 29.92 in 10.0 mi NW 17.3 mph 23.0 mph N/A   Overcast
5:55 PM 60.4 °F 50.4 °F 69% 29.93 in 10.0 mi NNW 12.7 mph 23.0 mph N/A   Overcast
6:15 PM 60.1 °F 50.0 °F 69% 29.93 in 10.0 mi NW 12.7 mph 20.7 mph N/A   Overcast
6:35 PM 59.9 °F 50.2 °F 70% 29.94 in 10.0 mi NNW 11.5 mph 21.9 mph N/A   Overcast
6:55 PM 59.5 °F 50.2 °F 71% 29.94 in 10.0 mi NNW 11.5 mph 20.7 mph N/A   Overcast
7:15 PM 59.2 °F 49.6 °F 71% 29.95 in 10.0 mi NNW 11.5 mph 23.0 mph N/A   Overcast
7:35 PM 59.0 °F 49.5 °F 71% 29.95 in 10.0 mi NNW 11.5 mph - N/A   Overcast
7:55 PM 59.0 °F 49.3 °F 70% 29.96 in 10.0 mi NW 16.1 mph 20.7 mph N/A   Overcast
8:15 PM 58.1 °F 49.1 °F 72% 29.98 in 10.0 mi NW 12.7 mph 19.6 mph N/A   Overcast
8:35 PM 57.6 °F 48.7 °F 72% 29.99 in 10.0 mi NNW 13.8 mph 19.6 mph N/A   Overcast
8:55 PM 57.2 °F 48.4 °F 72% 30.00 in 10.0 mi NW 12.7 mph 19.6 mph N/A   Overcast
9:15 PM 57.2 °F 48.2 °F 72% 30.01 in 10.0 mi NW 10.4 mph 25.3 mph N/A   Overcast
9:35 PM 57.2 °F 47.8 °F 71% 30.01 in 10.0 mi NW 13.8 mph 21.9 mph N/A   Overcast
9:55 PM 56.8 °F 48.2 °F 73% 30.02 in 10.0 mi NW 9.2 mph 18.4 mph N/A   Overcast
10:15 PM 56.7 °F 48.0 °F 73% 30.02 in 10.0 mi NW 11.5 mph 20.7 mph N/A   Overcast
10:35 PM 56.3 °F 48.2 °F 74% 30.02 in 10.0 mi NW 11.5 mph 20.7 mph N/A   Overcast
10:55 PM 56.3 °F 48.2 °F 74% 30.02 in 10.0 mi NNW 13.8 mph 23.0 mph N/A   Overcast
11:15 PM 56.1 °F 48.2 °F 75% 30.03 in 10.0 mi NNW 11.5 mph 19.6 mph N/A   Overcast
11:35 PM 55.9 °F 48.2 °F 75% 30.03 in 10.0 mi NW 10.4 mph 16.1 mph N/A   Overcast
11:55 PM 55.6 °F 48.6 °F 77% 30.03 in 10.0 mi NW 10.4 mph 17.3 mph N/A   Overcast